sat.trackr.live / text

‹ back to catalog

TIANMU-1 20

NORAD 58661 · 2023-208B

PAYLOAD ACTIVE UNKNOWN

§ Identity

Operator
Country
PRC
Launch date
2023-12-27
Launch site
JSC
Launch vehicle
Mass (kg)
RCS (m²)

Purposes: earth_obs

External: N2YO · Heavens-Above · Gunter

§ Orbital elements

Epoch: 2026-09-19T22:41:14.339904Z

Period
93.87 min
Inclination
97.4518°
Eccentricity
0.0006463
Mean motion
15.34055727 rev/d
Perigee alt
459.3 km
Apogee alt
468.1 km
Semi-major
6,841.9 km
B*
1.7870e-4
RAAN
20.5944°
Arg perigee
357.0155°
Mean anomaly
3.1047°
Rev number
15,194

§ Raw data

TIANMU-1 201 58661U 23208B   26262.94530486  .00005810  00000+0  17870-3 0  99972 58661  97.4518  20.5944 0006463 357.0155   3.1047 15.34055727151945

JSON: /api/v1/satellites/58661 · /tle

For live sub-satellite position, see the globe view (requires WebGL).

§ Visibility from observer

Set your observer location to see the next 7 days of passes ≥ 10°. The values pass through the URL so the page stays shareable.

No JS? Fill the form by hand. The geolocation button needs JavaScript.